Find Starlink 30778

NORAD ID: 58182 Int'l Des: 2023-167 Owner: SPXS Country: US Constellation: starlink operational
LEOCIRCULAR

当前视图

正在加载3D地球...

About Starlink 30778

Starlink 30778 (NORAD 58182) is a starlink constellation satellite (v2 mini) launched Oct 30, 2023 by SPXS of US. It operates in LEO, CIRCULAR orbit with a mass of 730.00 kg.

关于 Starlink 30778

正在加载描述...

即将过境

Passes for default location (London). Set your location on the main map for personalized predictions.

高度历史

Loading altitude history...

两行轨道根数

1 58182U 23167H 26170.02144295 -.00000505 00000-0 -88224-5 0 9997
2 58182 43.0011 291.0267 0000948 289.9476 70.1273 15.27577079146481
Epoch: Jun 19, 2026 • Age: 11 hours

当前状态

高度 486.6 km
速度 7.63 km/s
星下点 42.49°N, 79.49°W
发射日期 Oct 30, 2023
运行时间 2.6 years
类型 internet

技术详情

分类 Payload
质量 730.00 kg
干质量 700.00 kg
总质量 730.00 kg
长度 0.30 m
直径 4.10 m
跨度 29.00 m
形状 Box + pan
制造商 SPXS
平台类型 Starlink V2M
阶段状态 In Orbit
所有者/国家 SPXS/US

Most Searched